Location: B�hl
(48.6968°N, 8.1352°E)
Time: 08:24:06
(UTC+00:00)

Cosmos 2369 Rocket - Pass Details

Date: 08 March 2021
Orbit: 829 x 852 km, 71.0° (Epoch: 11 April)

Event Time Altitude Azimuth Distance (km) Brightness Sun altitude
Rises 20:11:42 0° 335° (NNW) 3,385 6.1 -27.9°
Reaches altitude 10° 20:14:20 10° 343° (NNW) 2,449 5.1 -28.3°
Enters shadow 20:18:21 34° 24° (NNE) 1,359 3.2 -28.9°
